Location: Homewood
(41.1836°S, 175.9581°E)
Time: 02:44:49
(UTC+00:00)

EXPRESS MD2 - Pass Details

Date: 18 April 2024
Orbit: 262 x 3349 km, 49.9° (Epoch: 22 May)

Event Time Altitude Azimuth Distance (km) Brightness Sun altitude
Exits shadow 17:28:57 14° 356° (N) 899 4.4 -16.0°
Drops below altitude 10° 17:29:35 10° 9° (N) 1,102 5.0 -15.9°
Sets 17:31:39 0° 28° (NNE) 1,954 6.6 -15.5°
